OpenBCM V1.07b12 (Linux)

Packet Radio Mailbox

DB0FHN

[JN59NK Nuernberg]

 Login: GUEST





  
I0OJJ  > KEPS     28.11.24 05:22l 370 Lines 17642 Bytes #999 (0) @ AMSAT
BID : ORB24333.1
Read: DJ6UX GUEST
Subj: 2Line Orbital Elements 24333.AMSAT
Path: DB0FHN<DB0FFL<OE5XBL<OE6XPE<DB0ERF<DK0WUE<PD0LPM<I0OJJ
Sent: 241128/0411z @:I0OJJ.ITA.EU [Rome] obcm1.08-6-g5b69
From: I0OJJ @ I0OJJ.ITA.EU (Gustavo)
To:   KEPS @ AMSAT
X-Info: This message was generated automatically


QST de W1STR

AMSAT Orbital Elements for Amateur Satellites in TLE Format
From Orbital Analysis Office
New England Sci-Tech STEM Education Center
Natick, MA November 28, 2024
To all radio amateurs


These element sets describe the orbits of various satellites 
in use by the amateur radio community. For details see:
www.amsat.org/keplerian-elements-formats/

A daily update of element sets is available at:
www.amsat.org/tle/daily-bulletin.txt
or without bulletin text:
www.amsat.org/tle/dailytle.txt


AO-07
1 07530U 74089B   24332.43459911 -.00000014  00000-0  20278-3 0  9991
2 07530 101.9896 328.6766 0012332 131.9480  11.9469 12.53683050289491
UO-11
1 14781U 84021B   24332.30080356  .00004389  00000-0  48249-3 0  9999
2 14781  97.7279 297.0135 0006187 257.6470 102.4054 14.88115057172730
AO-27
1 22825U 93061C   24332.08200143  .00000403  00000-0  17151-3 0  9995
2 22825  98.7676  26.3907 0007752 328.8557  31.2165 14.30664999625901
FO-29
1 24278U 96046B   24332.59678336  .00000006  00000-0  39719-4 0  9998
2 24278  98.5867 245.8544 0350883 124.9406 238.5226 13.53223055396536
NOAA-15
1 25338U 98030A   24332.78405005  .00000576  00000-0  25510-3 0  9998
2 25338  98.5549 356.4089 0009850 200.8857 159.1922 14.26808255380764
GO-32
1 25397U 98043D   24332.37725559  .00000407  00000-0  19647-3 0  9998
2 25397  98.9459 301.7334 0002235  65.6022 294.5390 14.24198357370642
ISS
1 25544U 98067A   24332.39236791  .00023440  00000-0  41811-3 0  9995
2 25544  51.6389 226.8295 0006858 273.4406  86.5798 15.49937636483866
NO-44
1 26931U 01043C   24332.36280790  .00000826  00000-0  34128-3 0  9995
2 26931  67.0509 269.9121 0007101 261.6831  98.3465 14.31515470209306
SO-50
1 27607U 02058C   24332.29172750  .00004343  00000-0  58029-3 0  9995
2 27607  64.5551  79.7178 0032887  29.1458 331.1473 14.80382639180450
CO-55
1 27844U 03031E   24331.46450041  .00001180  00000-0  53598-3 0  9992
2 27844  98.6785 336.2892 0010441  39.0070 321.1859 14.23661575110878
CO-57
1 27848U 03031J   24330.97312323  .00000930  00000-0  43184-3 0  9993
2 27848  98.6814 335.9506 0010586  55.5813 304.6365 14.23044615110543
RS-22
1 27939U 03042A   24332.79632182  .00004110  00000-0  67369-3 0  9991
2 27939  98.3066 131.9346 0010613 262.9675 205.6690 14.71257111132328
NOAA-18
1 28654U 05018A   24332.74390878  .00000605  00000-0  34500-3 0  9995
2 28654  98.8626  48.2641 0013463 322.4403  37.5828 14.13434090  6363
CO-58
1 28895U 05043F   24331.34203651  .00006026  00000-0  10239-2 0  9992
2 28895  98.2225 107.8085 0014830 202.0699 157.9870 14.69444788 18253
CO-65
1 32785U 08021C   24332.49168498  .00011638  00000-0  92511-3 0  9999
2 32785  97.7707 297.0428 0012288 147.4602 212.7381 15.00542001900002
AAUSAT2
1 32788U 08021F   24331.46043514  .00077228  00000-0  23032-2 0  9997
2 32788  97.6043 313.9467 0004183  34.8323 325.3193 15.34347828903048
CO-66
1 32791U 08021J   24330.91425732  .00025598  00000-0  15529-2 0  9991
2 32791  97.7097 302.0332 0007350 104.8717 255.3326 15.10494997900957
RS-30
1 32953U 08025A   24332.76853366  .00000069  00000-0  42476-3 0  9996
2 32953  82.5036 347.7411 0020657 107.5918 252.7420 12.43154035749455
PRISM
1 33493U 09002B   24332.46380425  .00087767  00000-0  23475-2 0  9997
2 33493  98.1805  35.8538 0008088  40.1081 320.0757 15.37686846863954
NOAA-19
1 33591U 09005A   24332.79007384  .00000543  00000-0  31428-3 0  9990
2 33591  99.0269  30.1643 0013749 187.2138 172.8838 14.13212047814734
SRMSAT
1 37841U 11058D   24332.47306322  .00000783  00000-0  28269-3 0  9997
2 37841  19.9716 249.0599 0011899  90.2955  65.2542 14.11294588677652
RS-40
1 38735U 12041C   24332.54194244  .00000035  00000-0  18084-3 0  9993
2 38735  82.4774  68.0229 0017128 220.0603 139.9214 12.42621090559464
ZACUBE-1
1 39417U 13066B   24331.67897063  .00013418  00000-0  12696-2 0  9992
2 39417  97.7547 284.5483 0047095 344.8050  15.1751 14.92925639595793
Delfi-N3xt
1 39428U 13066N   24332.57385273  .00019455  00000-0  22098-2 0  9993
2 39428  97.8360 247.0613 0090606 277.9523  81.1415 14.83349777590445
GOMX-1
1 39430U 13066Q   24332.49464118  .00004810  00000-0  77026-3 0  9994
2 39430  97.7058 196.9512 0137511  92.6691 269.0263 14.66000053586777
LO-74
1 39440U 13066AA  24332.26330247  .00010737  00000-0  11654-2 0  9994
2 39440  97.8295 272.8667 0068116  99.4331 261.4593 14.86604956592534
AO-73
1 39444U 13066AE  24332.60985637  .00018895  00000-0  16116-2 0  9996
2 39444  97.7392 289.1300 0042919 318.8532  40.9456 14.97044833594516
DTUSAT-2
1 40030U 14033W   24332.46830584  .00015806  00000-0  11710-2 0  9992
2 40030  98.0318 289.9399 0010836  10.6626 349.4826 15.03168298567182
EO-80
1 40032U 14033Y   24332.63194913  .00017743  00000-0  13116-2 0  9996
2 40032  98.0212 290.0197 0007718 304.6464  55.4032 15.03247869567700
XW-2C
1 40906U 15049H   24332.80017530  .00140256  00000-0  13359-2 0  9997
2 40906  97.4591 355.9955 0007023  74.0412 286.1621 15.66334046509847
LILACSAT-2
1 40908U 15049K   24332.81799148  .00020001  00000-0  64604-3 0  9997
2 40908  97.5199 343.3034 0012550 125.7389 234.5021 15.32069606508492
IO-86
1 40931U 15052B   24331.15516653  .00002068  00000-0  18982-3 0  9992
2 40931   6.0006 275.0072 0013182 221.8228 138.0892 14.78373291495468
ChubuSat-2
1 41338U 16012B   24332.56628963  .00012804  00000-0  72159-3 0  9990
2 41338  31.0011  56.6705 0010781  81.7049 278.4812 15.11937959482312
ChubuSat-3
1 41339U 16012C   24332.59131939  .00011350  00000-0  65715-3 0  9991
2 41339  31.0078  56.2931 0010764  84.5848 275.6018 15.10947315482191
Horyu-4
1 41340U 16012D   24332.32226922  .00031535  00000-0  12258-2 0  9991
2 41340  31.0021 346.5457 0009988 201.7877 158.2341 15.24822311482996
Lapan A3
1 41603U 16040E   24332.81888609  .00008148  00000-0  30508-3 0  9997
2 41603  97.1393 339.3392 0009803 234.8550 125.1772 15.27491368468185
Pratham
1 41783U 16059A   24332.47740033  .00002531  00000-0  47022-3 0  9995
2 41783  97.8300 344.1777 0031055 220.3726 139.5173 14.65699190436452
CAS-2T
1 41847U 16066G   24332.60238832  .00002939  00000-0  42838-3 0  9990
2 41847  98.4451  42.6664 0350635  44.9229 317.9771 14.42459392423048
CAS-4B
1 42759U 17034B   24332.57898259  .00048409  00000-0  11851-2 0  9992
2 42759  43.0158  16.2698 0013424  18.7872 341.3477 15.39933190412480
CAS-4A
1 42761U 17034D   24332.56255920  .00047605  00000-0  11542-2 0  9990
2 42761  43.0193  14.5332 0014000  28.3151 331.8464 15.40224509412496
D-SAT
1 42794U 17036AF  24332.40884080  .00017896  00000-0  11181-2 0  9994
2 42794  97.4948 308.8320 0100310 313.8889  45.4085 15.05350425405238
TechnoSat
1 42829U 17042E   24332.73132205  .00008399  00000-0  69328-3 0  9996
2 42829  97.3864 144.9831 0011210 243.7181 116.2892 14.99179308401651
AO-91
1 43017U 17073E   24332.41167912  .00015129  00000-0  83722-3 0  9991
2 43017  97.5521 202.4477 0196100 105.2641 257.0353 14.98935615380061
S-Net D
1 43186U 18014G   24332.15724990  .00011227  00000-0  72952-3 0  9998
2 43186  97.5755 231.3372 0010006 160.5974 199.5637 15.08144647373038
S-Net B
1 43187U 18014H   24331.23165414  .00011698  00000-0  76048-3 0  9999
2 43187  97.5763 230.3856 0010829 159.2609 200.9061 15.08110503372892
S-Net A
1 43188U 18014J   24332.15819077  .00011232  00000-0  72970-3 0  9997
2 43188  97.5766 231.4267 0010724 157.3561 202.8142 15.08147375373039
S-Net C
1 43189U 18014K   24332.56066462  .00011966  00000-0  77679-3 0  9990
2 43189  97.5787 231.8029 0012680 150.1670 210.0283 15.08140658371647
Ten-Koh
1 43677U 18084G   24332.42753584  .00007194  00000-0  60727-3 0  9996
2 43677  98.0784 131.2300 0012771 194.7597 165.3253 14.98389444331146
PO-101
1 43678U 18084H   24332.75214979  .00005345  00000-0  47291-3 0  9990
2 43678  98.0869 135.8901 0008046 200.2961 159.7941 14.96719293331379
QO-100
1 43700U 18090A   24332.30514514  .00000168  00000-0  00000-0 0  9994
2 43700   0.0125 284.9294 0002023   4.0570 273.4287  1.00273605 21993
MinXSS-2
1 43758U 18099A   24332.54640005  .00027464  00000-0  14096-2 0  9997
2 43758  97.5333  32.9539 0015272 114.2232 246.0598 15.16386664327475
AO-95
1 43770U 18099N   24331.92752295  .00017993  00000-0  10723-2 0  9996
2 43770  97.5240  26.6464 0012656 160.7764 199.3946 15.11171193327091
RANGE-B
1 43772U 18099Q   24332.61627862  .00032826  00000-0  15820-2 0  9991
2 43772  97.5042  31.6986 0005156  68.0818 292.0963 15.18641096327445
RANGE-A
1 43773U 18099R   24332.58914999  .00010670  00000-0  73929-3 0  9996
2 43773  97.4807  20.7091 0013434 131.8383 228.3994 15.05738435326999
MOVE-II
1 43780U 18099Y   24332.45857771  .00065113  00000-0  21393-2 0  9993
2 43780  97.4989  35.2495 0005258 122.8159 237.3589 15.31305206327764
SNUSat 2
1 43782U 18099AA  24332.40006244  .00014747  00000-0  92010-3 0  9993
2 43782  97.4926  25.3021 0014797 103.2068 257.0813 15.09519059327152
SnugLite
1 43784U 18099AC  24331.99585213  .00017781  00000-0  10535-2 0  9998
2 43784  97.4741  24.2160 0005274 107.5666 252.6141 15.11438451327189
ITASat 1
1 43786U 18099AE  24332.09973000  .00014433  00000-0  92570-3 0  9998
2 43786  97.4893  24.9960 0016379 152.4977 207.7122 15.08490140327095
EAGLET 1
1 43790U 18099AJ  24332.41801494  .00010217  00000-0  70353-3 0  9997
2 43790  97.5092  25.7201 0014177 130.0213 230.2260 15.05975140326816
ESEO
1 43792U 18099AL  24332.53498005  .00005094  00000-0  40078-3 0  9990
2 43792  97.4869  21.4518 0009977  95.1201 265.1163 15.01219424326690
CSIM
1 43793U 18099AM  24332.42963210  .00066825  00000-0  22300-2 0  9990
2 43793  97.5134  37.0588 0009294 101.3611 258.8675 15.30766286327608
